Weather Service Report


819 
ASUS43 KIND 240809
RWRIN 

WEATHER ROUNDUP FOR INDIANA
NATIONAL WEATHER SERVICE INDIANAPOLIS IN
400 AM EDT TUE MAY 24 2016

NOTE: "FAIR" INDICATES FEW OR NO CLOUDS BELOW 12,000 FEET WITH NO
SIGNIFICANT WEATHER AND/OR OBSTRUCTIONS TO VISIBILITY.

* - STATION DOES NOT REPORT WEATHER SUCH AS PRECIPITATION OR FOG.

+ - STATION NOT QUALITY CONTROLLED BY THE NATIONAL WEATHER SERVICE.
    USE DATA WITH CAUTION...ESPECIALLY DEWPOINT AND RELATIVE
    HUMIDITY OBSERVATIONS.

INZ001>003-010>013-019-020-240900-
NORTHWEST INDIANA
  
CITY           SKY/WX    TMP DP  RH WIND       PRES   REMARKS
GARY /AIRPORT/ CLEAR     64  49  59 S3        29.98R                  
KNOX *+        CLEAR     55  30  38 CALM      29.99R                  
LA PORTE +     PTCLDY    57  40  54 S3        30.00R                  
MICHIGAN CITY+ CLEAR     63  37  39 S6        29.99R                  
MONTICELLO +   CLEAR     57  37  47 S5        30.00R                  
RENSSELAER +   CLEAR     57  41  54 S6        30.00R                  
VALPARAISO     CLEAR     59  40  49 S3        29.99S                  

$$

LMZ046-743>745-240900-
SOUTHERN LAKE MICHIGAN
  
STATION/POSITION TIME  TEMP    WIND        PRES    WAVE
                       AIR SEA DIR/SP/G            HT
                 (UTC) (F)     (DEG/KT/KT) (MB)    (FT)
BURNS HARBOR     0800   64     190/  9/ 14 1015.2S
MICHIGAN CITY    0700   66     150/ 13/ 16   N/A
5NW MICH CITY    0800   60 56  180/  6/  8   N/A     1

$$

INZ004-005-014>016-021>024-240900-
NORTH CENTRAL INDIANA
  
CITY           SKY/WX    TMP DP  RH WIND       PRES   REMARKS
GOSHEN         CLEAR     49  39  68 CALM      30.00R                  
LOGANSPORT +   CLEAR     52  41  66 S5        30.01S                  
PERU/GRISSOM   CLEAR     55  41  59 S5        29.99R                  
ROCHESTER +    CLEAR     63  41  45 CALM      30.00S                  
SOUTH BEND     CLEAR     54  38  54 SW6       30.00R                  
WARSAW +       CLEAR     48  41  76 CALM      30.00R                  

$$

INZ006>009-017-018-025>027-240900-
NORTHEAST INDIANA
  
CITY           SKY/WX    TMP DP  RH WIND       PRES   REMARKS
ANGOLA *+      CLEAR     46  46 100 CALM      30.00S                  
AUBURN +       CLEAR     50  43  76 CALM      30.01S                  
FORT WAYNE     PTCLDY    52  45  77 CALM      30.01S                  
HUNTINGTON +   CLEAR     51  45  79 CALM      30.00S                  

$$

INZ028-029-035-036-043>045-051>053-240900-
WEST CENTRAL INDIANA
  
CITY           SKY/WX    TMP DP  RH WIND       PRES   REMARKS
CRAWFORDSVL +  CLEAR     52  44  75 S5        30.02R                  
GREENCASTLE +  CLEAR     52  46  82 CALM      30.03R                  
LAFAYETTE      CLEAR     53  45  74 CALM      30.01R                  
TERRE HAUTE    CLOUDY    54  49  83 CALM      30.02R                  

$$

INZ030>032-037>040-046>048-054>057-064-065-240900-
CENTRAL INDIANA
  
CITY           SKY/WX    TMP DP  RH WIND       PRES   REMARKS
CP ATTERBURY + CLEAR     46  45  93 CALM      30.01S                  
FISHERS *+     CLEAR     48  46  93 CALM      30.02R                  
FRANKFORT +      N/A     56  33  41 CALM      30.03R                  
GREENWOOD *+   CLEAR     54  45  71 CALM      30.02S                  
INDIANAPOLIS   CLEAR     58  43  57 W3        30.01R                  
-EAGLE CREEK   CLEAR     55  46  71 CALM      30.01R                  
KOKOMO *+      CLEAR     54  39  58 SW3       30.01R                  
MARION +       CLEAR     54  45  70 CALM      30.01S                  
SHELBYVILLE    CLEAR     54  47  77 S3        30.00F                  
ZIONSVILLE +   CLEAR     51  44  74 CALM      30.03R                  

$$

INZ033-034-041-042-049-050-058-059-240900-
EAST CENTRAL INDIANA
  
CITY           SKY/WX    TMP DP  RH WIND       PRES   REMARKS
MUNCIE         CLEAR     58  46  64 CALM      30.01S                  

$$

INZ060-061-067>069-081>083-085>088-240900-
SOUTHWEST INDIANA
  
CITY           SKY/WX    TMP DP  RH WIND       PRES   REMARKS
EVANSVILLE     CLEAR     57  50  77 CALM      30.02R                  
HUNTINGBURG *+ CLOUDY    57  45  62 CALM      30.03R                  
WASHINGTON +   CLOUDY    58  50  75 SE3       30.01R HAZE             

$$

INZ062-063-066-070>080-084-089>092-240900-
SOUTH CENTRAL AND SOUTHEAST INDIANA
  
CITY           SKY/WX    TMP DP  RH WIND       PRES   REMARKS
BLOOMINGTON    CLEAR     50  46  86 CALM      30.02R                  
MADISON *+     CLEAR     54  50  87 CALM      30.03F                  
SEYMOUR +      CLEAR     54  52  94 CALM      30.01S                  

$$

  

Return to Home page


Western Regional Climate Center, wrcc@dri.edu